QPF
0.00 0.00 0.00 0.00 0.00 0.01 0.01 0.00 0.00 0.01 0.01 0.02 0.07 0.10 0.07 0.06 0.05 0.05 0.05 0.05 0.04 0.03 0.03 0.03 0.04 0.05 0.03 0.03 0.04 0.05 0.04 0.05 0.06 0.07 0.06 0.06 0.07 0.06 0.07 0.07 0.05 0.05 0.07 0.07
0.00 0.00 0.00 0.00 0.01 0.02 0.01 0.00 0.01 0.02 0.02 0.03 0.06 0.09 0.08 0.07 0.08 0.05 0.04 0.04 0.03 0.02 0.02 0.03 0.03 0.03 0.02 0.03 0.03 0.04 0.05 0.06 0.06 0.05 0.05 0.05 0.05 0.05 0.05 0.06 0.07 0.08 0.07 0.07
0.01 0.01 0.01 0.02 0.01 0.01 0.01 0.01 0.02 0.04 0.05 0.04 0.06 0.13 0.13 0.08 0.06 0.05 0.04 0.04 0.03 0.03 0.03 0.04 0.04 0.03 0.04 0.05 0.05 0.04 0.04 0.05 0.05 0.04 0.03 0.03 0.03 0.05 0.05 0.05 0.06 0.07 0.06 0.06
0.01 0.01 0.02 0.03 0.03 0.01 0.01 0.03 0.05 0.06 0.05 0.04 0.05 0.14 0.10 0.06 0.05 0.05 0.05 0.04 0.05 0.06 0.07 0.08 0.04 0.04 0.07 0.13 0.13 0.09 0.06 0.04 0.03 0.04 0.04 0.04 0.04 0.05 0.07 0.07 0.08 0.08 0.07 0.07
0.01 0.01 0.02 0.04 0.05 0.03 0.02 0.04 0.06 0.05 0.06 0.03 0.02 0.04 0.05 0.04 0.04 0.05 0.06 0.05 0.05 0.07 0.09 0.07 0.05 0.05 0.08 0.11 0.12 0.08 0.05 0.03 0.03 0.04 0.04 0.04 0.04 0.05 0.08 0.09 0.09 0.09 0.08 0.07
0.01 0.02 0.02 0.02 0.03 0.04 0.04 0.04 0.05 0.03 0.04 0.04 0.02 0.03 0.04 0.04 0.04 0.06 0.09 0.09 0.07 0.06 0.07 0.07 0.08 0.09 0.09 0.07 0.07 0.07 0.06 0.07 0.09 0.10 0.06 0.04 0.06 0.08 0.10 0.09 0.11 0.14 0.11 0.08
0.01 0.02 0.02 0.02 0.02 0.03 0.05 0.07 0.05 0.04 0.01 0.02 0.02 0.02 0.03 0.04 0.04 0.05 0.08 0.12 0.08 0.07 0.09 0.09 0.09 0.09 0.08 0.06 0.06 0.06 0.07 0.10 0.13 0.16 0.10 0.08 0.09 0.11 0.13 0.14 0.16 0.15 0.11 0.08
0.01 0.03 0.03 0.02 0.02 0.05 0.09 0.10 0.06 0.05 0.03 0.02 0.01 0.01 0.01 0.02 0.03 0.06 0.11 0.16 0.13 0.10 0.10 0.10 0.11 0.11 0.08 0.08 0.07 0.08 0.09 0.10 0.11 0.14 0.15 0.14 0.15 0.16 0.17 0.22 0.23 0.20 0.17 0.16
0.02 0.02 0.03 0.04 0.04 0.05 0.06 0.07 0.07 0.06 0.04 0.02 0.02 0.01 0.02 0.03 0.05 0.07 0.11 0.10 0.09 0.10 0.14 0.16 0.14 0.14 0.13 0.08 0.06 0.08 0.10 0.12 0.15 0.24 0.30 0.24 0.21 0.20 0.19 0.19 0.20 0.20 0.21 0.18
0.03 0.06 0.05 0.08 0.08 0.07 0.06 0.05 0.04 0.04 0.04 0.02 0.02 0.02 0.02 0.04 0.04 0.05 0.06 0.04 0.03 0.04 0.13 0.18 0.15 0.13 0.19 0.16 0.10 0.10 0.12 0.12 0.14 0.16 0.20 0.21 0.21 0.19 0.19 0.21 0.29 0.30 0.24 0.19
0.07 0.09 0.08 0.08 0.11 0.07 0.04 0.04 0.03 0.03 0.03 0.02 0.03 0.03 0.02 0.02 0.01 0.02 0.03 0.03 0.03 0.04 0.09 0.17 0.11 0.09 0.13 0.16 0.13 0.13 0.13 0.14 0.14 0.16 0.19 0.20 0.20 0.21 0.22 0.19 0.16 0.14 0.11 0.09
0.06 0.08 0.09 0.09 0.09 0.08 0.06 0.04 0.03 0.04 0.03 0.02 0.02 0.02 0.02 0.01 0.01 0.02 0.02 0.03 0.05 0.05 0.07 0.08 0.09 0.09 0.08 0.10 0.12 0.14 0.14 0.13 0.13 0.15 0.17 0.16 0.16 0.15 0.13 0.10 0.09 0.08 0.07 0.07
0.06 0.06 0.07 0.08 0.07 0.06 0.06 0.06 0.05 0.04 0.06 0.05 0.02 0.01 0.01 0.01 0.02 0.02 0.03 0.04 0.05 0.06 0.07 0.08 0.10 0.11 0.11 0.12 0.14 0.15 0.12 0.11 0.12 0.13 0.15 0.15 0.13 0.10 0.08 0.06 0.05 0.04 0.05 0.05
0.09 0.06 0.08 0.08 0.08 0.06 0.05 0.05 0.05 0.05 0.07 0.06 0.04 0.03 0.03 0.03 0.04 0.04 0.05 0.05 0.06 0.06 0.07 0.09 0.10 0.11 0.13 0.13 0.17 0.16 0.10 0.09 0.08 0.09 0.10 0.10 0.07 0.05 0.05 0.04 0.04 0.03 0.03 0.03
0.08 0.06 0.06 0.07 0.07 0.06 0.05 0.05 0.07 0.06 0.04 0.04 0.04 0.07 0.08 0.08 0.06 0.06 0.07 0.05 0.05 0.06 0.07 0.09 0.08 0.09 0.08 0.09 0.10 0.11 0.09 0.07 0.06 0.06 0.06 0.06 0.06 0.04 0.04 0.04 0.04 0.03 0.03 0.03
0.06 0.04 0.03 0.05 0.05 0.05 0.05 0.05 0.07 0.06 0.05 0.06 0.09 0.09 0.09 0.10 0.09 0.08 0.08 0.06 0.04 0.04 0.04 0.05 0.06 0.07 0.05 0.04 0.05 0.05 0.06 0.06 0.06 0.05 0.05 0.05 0.05 0.04 0.04 0.03 0.03 0.02 0.02 0.02
0.06 0.05 0.03 0.05 0.07 0.08 0.08 0.08 0.09 0.10 0.10 0.12 0.14 0.09 0.08 0.09 0.09 0.09 0.09 0.07 0.05 0.03 0.03 0.03 0.04 0.05 0.04 0.03 0.03 0.03 0.03 0.04 0.05 0.05 0.04 0.04 0.04 0.03 0.03 0.02 0.01 0.01 0.01 0.02
0.05 0.04 0.02 0.03 0.06 0.10 0.12 0.11 0.11 0.13 0.12 0.11 0.09 0.07 0.05 0.05 0.06 0.07 0.08 0.07 0.06 0.05 0.03 0.02 0.02 0.03 0.03 0.03 0.03 0.02 0.03 0.03 0.03 0.03 0.04 0.04 0.04 0.03 0.03 0.02 0.01 0.01 0.01 0.01
0.03 0.04 0.03 0.02 0.04 0.07 0.09 0.10 0.09 0.10 0.10 0.07 0.05 0.04 0.03 0.03 0.03 0.03 0.03 0.04 0.04 0.04 0.03 0.03 0.03 0.02 0.02 0.02 0.03 0.02 0.03 0.03 0.02 0.02 0.03 0.04 0.04 0.03 0.03 0.02 0.01 0.01 0.00 0.00
0.02 0.05 0.04 0.03 0.03 0.04 0.04 0.05 0.06 0.07 0.06 0.04 0.05 0.04 0.02 0.02 0.02 0.02 0.02 0.02 0.03 0.03 0.03 0.03 0.03 0.02 0.01 0.01 0.01 0.01 0.02 0.02 0.02 0.02 0.03 0.04 0.04 0.03 0.03 0.03 0.02 0.01 0.01 0.01
0.02 0.03 0.04 0.04 0.03 0.03 0.03 0.03 0.03 0.04 0.04 0.03 0.04 0.04 0.02 0.02 0.02 0.02 0.02 0.02 0.02 0.02 0.02 0.03 0.03 0.03 0.02 0.02 0.01 0.01 0.02 0.01 0.02 0.03 0.03 0.03 0.02 0.02 0.02 0.02 0.03 0.03 0.02 0.02
0.03 0.04 0.04 0.04 0.03 0.03 0.03 0.02 0.01 0.02 0.02 0.02 0.04 0.04 0.02 0.02 0.02 0.02 0.02 0.01 0.01 0.02 0.02 0.02 0.03 0.03 0.04 0.03 0.03 0.03 0.03 0.03 0.03 0.03 0.03 0.02 0.02 0.02 0.02 0.02 0.02 0.02 0.02 0.03
0.04 0.04 0.05 0.06 0.05 0.03 0.03 0.02 0.02 0.02 0.02 0.03 0.04 0.04 0.02 0.02 0.01 0.01 0.01 0.01 0.01 0.02 0.02 0.03 0.04 0.04 0.03 0.03 0.03 0.04 0.04 0.04 0.03 0.02 0.02 0.01 0.01 0.02 0.02 0.02 0.01 0.02 0.02 0.02
0.05 0.05 0.07 0.08 0.07 0.05 0.04 0.03 0.03 0.03 0.02 0.02 0.02 0.01 0.01 0.01 0.01 0.01 0.01 0.02 0.02 0.03 0.02 0.03 0.03 0.04 0.03 0.02 0.03 0.03 0.03 0.02 0.02 0.02 0.02 0.01 0.01 0.02 0.02 0.02 0.02 0.02 0.02 0.02
0.04 0.04 0.05 0.06 0.06 0.04 0.02 0.02 0.02 0.02 0.02 0.02 0.01 0.01 0.02 0.02 0.01 0.01 0.02 0.02 0.03 0.03 0.02 0.03 0.03 0.03 0.02 0.02 0.02 0.01 0.01 0.02 0.02 0.02 0.02 0.02 0.02 0.01 0.01 0.01 0.01 0.02 0.02 0.02
0.04 0.04 0.05 0.06 0.05 0.04 0.03 0.02 0.02 0.02 0.02 0.02 0.02 0.02 0.02 0.02 0.02 0.01 0.02 0.02 0.02 0.02 0.02 0.02 0.01 0.01 0.01 0.01 0.01 0.01 0.01 0.01 0.02 0.02 0.02 0.02 0.02 0.01 0.01 0.02 0.02 0.03 0.03 0.03
0.05 0.05 0.07 0.07 0.06 0.05 0.04 0.03 0.03 0.03 0.03 0.02 0.02 0.02 0.02 0.02 0.02 0.02 0.01 0.02 0.02 0.02 0.01 0.01 0.01 0.01 0.00 0.01 0.01 0.02 0.02 0.03 0.04 0.05 0.04 0.04 0.04 0.04 0.04 0.04 0.05 0.06 0.06 0.06
MSLP
1013.34 1013.68 1014.01 1014.33 1014.62 1014.84 1014.96 1014.94 1014.76 1014.39 1013.86 1013.20 1012.46 1011.70 1010.98 1010.34 1009.80 1009.38 1009.04 1008.78 1008.56 1008.37 1008.19 1008.03 1007.90 1007.83 1007.84 1007.93 1008.12 1008.37 1008.67 1008.99 1009.28 1009.52 1009.69 1009.80 1009.87 1009.92 1009.98 1010.08 1010.24 1010.47 1010.76 1011.11
1013.56 1013.82 1013.99 1014.10 1014.16 1014.17 1014.13 1014.03 1013.85 1013.60 1013.28 1012.89 1012.44 1011.97 1011.50 1011.02 1010.56 1010.12 1009.70 1009.29 1008.91 1008.55 1008.23 1007.97 1007.79 1007.71 1007.73 1007.85 1008.06 1008.33 1008.61 1008.88 1009.11 1009.27 1009.37 1009.41 1009.41 1009.41 1009.43 1009.50 1009.63 1009.83 1010.09 1010.40
1013.92 1014.07 1014.10 1014.04 1013.91 1013.76 1013.59 1013.42 1013.25 1013.09 1012.92 1012.73 1012.51 1012.25 1011.93 1011.57 1011.14 1010.67 1010.15 1009.62 1009.09 1008.61 1008.19 1007.87 1007.66 1007.59 1007.65 1007.81 1008.05 1008.32 1008.59 1008.82 1008.98 1009.07 1009.08 1009.05 1008.98 1008.93 1008.91 1008.95 1009.05 1009.22 1009.45 1009.72
1014.35 1014.41 1014.32 1014.12 1013.86 1013.59 1013.33 1013.11 1012.95 1012.85 1012.78 1012.72 1012.65 1012.51 1012.30 1011.98 1011.56 1011.04 1010.44 1009.80 1009.18 1008.60 1008.12 1007.77 1007.57 1007.52 1007.61 1007.81 1008.07 1008.35 1008.60 1008.78 1008.89 1008.90 1008.84 1008.74 1008.62 1008.52 1008.46 1008.46 1008.54 1008.68 1008.88 1009.10
1014.78 1014.75 1014.57 1014.28 1013.94 1013.59 1013.28 1013.04 1012.89 1012.82 1012.82 1012.84 1012.83 1012.76 1012.59 1012.29 1011.85 1011.29 1010.63 1009.93 1009.23 1008.61 1008.10 1007.74 1007.55 1007.53 1007.65 1007.87 1008.14 1008.41 1008.63 1008.78 1008.83 1008.78 1008.67 1008.51 1008.34 1008.21 1008.13 1008.11 1008.16 1008.27 1008.43 1008.61
1015.08 1014.98 1014.74 1014.41 1014.03 1013.66 1013.34 1013.10 1012.96 1012.92 1012.95 1013.00 1013.03 1012.99 1012.83 1012.53 1012.08 1011.49 1010.80 1010.07 1009.35 1008.70 1008.19 1007.83 1007.65 1007.64 1007.77 1007.99 1008.26 1008.50 1008.69 1008.80 1008.81 1008.72 1008.57 1008.39 1008.21 1008.06 1007.96 1007.93 1007.96 1008.05 1008.17 1008.31
1015.19 1015.04 1014.77 1014.43 1014.06 1013.70 1013.40 1013.19 1013.07 1013.04 1013.09 1013.15 1013.20 1013.16 1013.01 1012.71 1012.26 1011.68 1011.00 1010.27 1009.56 1008.92 1008.41 1008.06 1007.88 1007.86 1007.97 1008.17 1008.41 1008.62 1008.78 1008.85 1008.84 1008.74 1008.59 1008.41 1008.23 1008.09 1008.00 1007.97 1007.99 1008.06 1008.14 1008.24
1015.07 1014.88 1014.62 1014.30 1013.97 1013.66 1013.40 1013.22 1013.13 1013.13 1013.18 1013.25 1013.29 1013.27 1013.13 1012.85 1012.43 1011.88 1011.24 1010.55 1009.87 1009.26 1008.76 1008.41 1008.21 1008.16 1008.23 1008.39 1008.57 1008.74 1008.87 1008.93 1008.92 1008.84 1008.71 1008.56 1008.42 1008.31 1008.24 1008.22 1008.24 1008.29 1008.35 1008.41
1014.73 1014.54 1014.30 1014.03 1013.76 1013.51 1013.31 1013.18 1013.12 1013.13 1013.19 1013.26 1013.31 1013.29 1013.18 1012.94 1012.58 1012.09 1011.51 1010.88 1010.26 1009.68 1009.19 1008.83 1008.60 1008.50 1008.51 1008.60 1008.72 1008.86 1008.96 1009.02 1009.03 1008.99 1008.92 1008.83 1008.75 1008.69 1008.66 1008.66 1008.68 1008.72 1008.75 1008.78
1014.25 1014.08 1013.88 1013.68 1013.48 1013.30 1013.16 1013.07 1013.04 1013.06 1013.12 1013.19 1013.24 1013.25 1013.17 1012.98 1012.69 1012.28 1011.78 1011.23 1010.66 1010.12 1009.64 1009.25 1008.98 1008.81 1008.75 1008.76 1008.83 1008.93 1009.02 1009.09 1009.14 1009.17 1009.17 1009.17 1009.16 1009.17 1009.18 1009.21 1009.24 1009.27 1009.28 1009.29
1013.74 1013.60 1013.46 1013.33 1013.20 1013.09 1013.00 1012.94 1012.93 1012.95 1013.00 1013.07 1013.13 1013.15 1013.10 1012.97 1012.75 1012.43 1012.02 1011.54 1011.03 1010.52 1010.04 1009.63 1009.30 1009.06 1008.92 1008.86 1008.87 1008.93 1009.02 1009.12 1009.22 1009.32 1009.41 1009.49 1009.57 1009.64 1009.71 1009.77 1009.81 1009.84 1009.85 1009.84
1013.28 1013.19 1013.12 1013.05 1012.99 1012.94 1012.89 1012.86 1012.85 1012.86 1012.89 1012.94 1012.99 1013.02 1013.00 1012.92 1012.76 1012.52 1012.18 1011.78 1011.31 1010.83 1010.35 1009.90 1009.51 1009.21 1008.99 1008.86 1008.82 1008.84 1008.93 1009.06 1009.21 1009.38 1009.55 1009.72 1009.87 1010.01 1010.13 1010.22 1010.29 1010.33 1010.34 1010.34
1012.94 1012.90 1012.89 1012.90 1012.90 1012.89 1012.87 1012.85 1012.83 1012.82 1012.82 1012.84 1012.86 1012.88 1012.88 1012.83 1012.72 1012.53 1012.26 1011.91 1011.48 1011.02 1010.53 1010.05 1009.61 1009.24 1008.95 1008.76 1008.67 1008.67 1008.75 1008.90 1009.10 1009.32 1009.56 1009.79 1010.01 1010.21 1010.37 1010.49 1010.59 1010.65 1010.69 1010.71
1012.72 1012.75 1012.80 1012.87 1012.92 1012.95 1012.95 1012.92 1012.88 1012.84 1012.80 1012.78 1012.77 1012.77 1012.76 1012.72 1012.63 1012.48 1012.24 1011.93 1011.53 1011.07 1010.58 1010.08 1009.60 1009.17 1008.83 1008.58 1008.45 1008.42 1008.49 1008.64 1008.86 1009.12 1009.40 1009.68 1009.94 1010.17 1010.37 1010.53 1010.66 1010.75 1010.83 1010.89
1012.59 1012.68 1012.79 1012.91 1013.01 1013.07 1013.08 1013.05 1012.99 1012.91 1012.82 1012.75 1012.70 1012.65 1012.62 1012.57 1012.48 1012.34 1012.13 1011.83 1011.45 1011.00 1010.50 1009.98 1009.48 1009.02 1008.63 1008.34 1008.17 1008.11 1008.16 1008.30 1008.52 1008.78 1009.07 1009.37 1009.65 1009.91 1010.13 1010.32 1010.48 1010.62 1010.75 1010.88
1012.50 1012.63 1012.80 1012.97 1013.11 1013.19 1013.22 1013.18 1013.09 1012.97 1012.84 1012.72 1012.61 1012.52 1012.44 1012.36 1012.25 1012.11 1011.90 1011.61 1011.24 1010.80 1010.31 1009.79 1009.27 1008.79 1008.38 1008.06 1007.86 1007.76 1007.78 1007.90 1008.09 1008.34 1008.61 1008.90 1009.18 1009.44 1009.68 1009.90 1010.09 1010.29 1010.48 1010.67
1012.37 1012.55 1012.77 1012.98 1013.15 1013.25 1013.28 1013.24 1013.13 1012.97 1012.80 1012.62 1012.45 1012.31 1012.18 1012.06 1011.92 1011.76 1011.54 1011.26 1010.90 1010.47 1010.00 1009.49 1008.98 1008.51 1008.09 1007.76 1007.53 1007.41 1007.39 1007.47 1007.62 1007.82 1008.07 1008.32 1008.58 1008.83 1009.08 1009.32 1009.55 1009.79 1010.05 1010.32
1012.18 1012.40 1012.65 1012.88 1013.07 1013.19 1013.23 1013.17 1013.04 1012.86 1012.64 1012.40 1012.18 1011.98 1011.80 1011.62 1011.45 1011.26 1011.03 1010.75 1010.40 1010.00 1009.56 1009.08 1008.61 1008.16 1007.76 1007.43 1007.19 1007.05 1007.00 1007.03 1007.14 1007.29 1007.49 1007.70 1007.93 1008.16 1008.40 1008.65 1008.92 1009.21 1009.53 1009.87
1011.95 1012.18 1012.44 1012.68 1012.88 1012.99 1013.02 1012.95 1012.80 1012.58 1012.31 1012.03 1011.75 1011.49 1011.25 1011.02 1010.81 1010.59 1010.34 1010.07 1009.74 1009.38 1008.98 1008.55 1008.13 1007.72 1007.36 1007.06 1006.84 1006.69 1006.62 1006.62 1006.68 1006.79 1006.93 1007.10 1007.29 1007.49 1007.72 1007.98 1008.27 1008.60 1008.97 1009.38
1011.70 1011.92 1012.17 1012.41 1012.59 1012.68 1012.68 1012.58 1012.39 1012.13 1011.82 1011.48 1011.15 1010.82 1010.52 1010.25 1009.99 1009.74 1009.48 1009.20 1008.91 1008.58 1008.24 1007.88 1007.52 1007.19 1006.89 1006.64 1006.45 1006.32 1006.24 1006.23 1006.26 1006.33 1006.42 1006.55 1006.71 1006.89 1007.11 1007.36 1007.67 1008.03 1008.43 1008.88
1011.49 1011.69 1011.91 1012.10 1012.24 1012.29 1012.24 1012.10 1011.86 1011.55 1011.18 1010.79 1010.39 1010.00 1009.64 1009.31 1009.01 1008.72 1008.45 1008.18 1007.91 1007.63 1007.34 1007.06 1006.79 1006.54 1006.32 1006.14 1006.01 1005.92 1005.87 1005.86 1005.88 1005.93 1006.00 1006.10 1006.22 1006.38 1006.58 1006.84 1007.15 1007.51 1007.94 1008.42
1011.36 1011.52 1011.68 1011.80 1011.87 1011.86 1011.75 1011.54 1011.24 1010.87 1010.44 1009.98 1009.52 1009.07 1008.65 1008.26 1007.90 1007.58 1007.29 1007.02 1006.77 1006.54 1006.32 1006.12 1005.94 1005.78 1005.66 1005.57 1005.51 1005.48 1005.48 1005.50 1005.54 1005.59 1005.66 1005.74 1005.85 1006.00 1006.18 1006.42 1006.73 1007.10 1007.54 1008.03
1011.31 1011.40 1011.49 1011.54 1011.52 1011.42 1011.23 1010.95 1010.58 1010.14 1009.65 1009.13 1008.60 1008.09 1007.60 1007.15 1006.75 1006.39 1006.07 1005.80 1005.56 1005.37 1005.21 1005.08 1004.99 1004.94 1004.92 1004.93 1004.96 1005.02 1005.09 1005.17 1005.24 1005.32 1005.40 1005.49 1005.60 1005.73 1005.91 1006.14 1006.43 1006.80 1007.23 1007.72
1011.31 1011.33 1011.32 1011.28 1011.17 1010.98 1010.71 1010.35 1009.91 1009.41 1008.86 1008.28 1007.70 1007.12 1006.58 1006.07 1005.61 1005.21 1004.87 1004.58 1004.36 1004.19 1004.08 1004.02 1004.01 1004.06 1004.14 1004.25 1004.39 1004.55 1004.70 1004.85 1004.99 1005.12 1005.23 1005.34 1005.46 1005.60 1005.77 1005.99 1006.27 1006.61 1007.04 1007.52
1011.29 1011.22 1011.13 1010.99 1010.80 1010.53 1010.18 1009.75 1009.26 1008.70 1008.11 1007.48 1006.85 1006.23 1005.63 1005.08 1004.57 1004.13 1003.75 1003.45 1003.23 1003.08 1003.00 1003.00 1003.07 1003.20 1003.38 1003.60 1003.84 1004.09 1004.35 1004.58 1004.80 1004.99 1005.15 1005.29 1005.43 1005.58 1005.75 1005.97 1006.23 1006.56 1006.97 1007.44
1011.17 1011.02 1010.85 1010.63 1010.36 1010.03 1009.62 1009.15 1008.62 1008.04 1007.42 1006.77 1006.11 1005.46 1004.83 1004.24 1003.69 1003.22 1002.81 1002.49 1002.26 1002.12 1002.07 1002.11 1002.24 1002.44 1002.70 1003.01 1003.35 1003.71 1004.05 1004.38 1004.67 1004.93 1005.15 1005.34 1005.51 1005.68 1005.85 1006.06 1006.32 1006.64 1007.03 1007.49
1010.88 1010.67 1010.43 1010.16 1009.83 1009.46 1009.03 1008.54 1008.01 1007.42 1006.80 1006.16 1005.50 1004.84 1004.20 1003.59 1003.02 1002.52 1002.10 1001.76 1001.52 1001.38 1001.35 1001.42 1001.59 1001.85 1002.18 1002.57 1002.99 1003.42 1003.85 1004.26 1004.63 1004.96 1005.23 1005.47 1005.67 1005.86 1006.06 1006.27 1006.52 1006.83 1007.21 1007.66
Thickness
5730 5742 5747 5747 5751 5754 5746 5739 5734 5742 5750 5761 5772 5777 5783 5788 5790 5790 5789 5789 5790 5790 5793 5796 5797 5798 5799 5797 5795 5793 5787 5783 5779 5777 5775 5772 5769 5765 5762 5759 5756 5753 5750 5747
5722 5737 5741 5741 5748 5752 5752 5752 5748 5750 5751 5767 5772 5776 5778 5780 5782 5780 5782 5783 5786 5787 5788 5791 5792 5793 5793 5792 5791 5788 5783 5780 5777 5774 5771 5769 5766 5762 5759 5756 5752 5749 5745 5742
5700 5720 5728 5719 5737 5745 5748 5754 5752 5742 5748 5761 5763 5766 5769 5772 5774 5773 5775 5777 5778 5780 5783 5786 5788 5789 5787 5787 5787 5783 5780 5777 5774 5771 5767 5765 5762 5758 5754 5751 5748 5743 5740 5736
5689 5702 5695 5715 5745 5751 5746 5747 5753 5752 5753 5757 5759 5761 5766 5768 5768 5766 5768 5771 5772 5773 5775 5778 5782 5783 5784 5783 5780 5777 5775 5773 5771 5768 5764 5761 5757 5753 5750 5746 5742 5738 5734 5731
5676 5680 5693 5719 5737 5741 5735 5729 5744 5745 5747 5751 5755 5755 5752 5760 5763 5761 5762 5764 5766 5768 5768 5770 5772 5774 5774 5773 5773 5771 5770 5769 5766 5764 5760 5756 5752 5748 5745 5741 5736 5732 5729 5725
5674 5676 5678 5704 5733 5746 5737 5715 5736 5741 5741 5744 5746 5731 5733 5749 5753 5755 5756 5757 5758 5761 5762 5762 5764 5766 5765 5763 5764 5764 5765 5764 5762 5758 5755 5751 5747 5743 5740 5736 5730 5726 5722 5719
5668 5670 5682 5713 5731 5737 5708 5708 5731 5737 5739 5740 5735 5733 5736 5742 5744 5746 5747 5749 5751 5752 5751 5752 5756 5758 5755 5755 5754 5757 5759 5758 5755 5752 5749 5745 5741 5737 5732 5728 5723 5718 5714 5711
5660 5661 5673 5713 5720 5712 5710 5724 5728 5731 5733 5732 5730 5732 5732 5733 5734 5736 5738 5739 5741 5740 5740 5744 5747 5748 5746 5744 5746 5749 5750 5749 5747 5744 5741 5737 5732 5727 5724 5720 5714 5708 5704 5700
5667 5672 5692 5707 5711 5716 5719 5719 5722 5722 5724 5726 5723 5722 5722 5723 5724 5726 5727 5728 5731 5731 5730 5733 5736 5738 5735 5735 5738 5740 5739 5738 5736 5733 5729 5726 5722 5716 5713 5710 5705 5699 5695 5690
5670 5679 5691 5699 5706 5710 5713 5714 5716 5717 5718 5719 5716 5715 5714 5714 5715 5716 5717 5718 5719 5721 5721 5722 5725 5727 5728 5729 5729 5729 5727 5725 5724 5720 5716 5713 5710 5707 5703 5699 5694 5690 5685 5681
5663 5673 5681 5688 5695 5700 5704 5706 5708 5709 5710 5710 5709 5707 5707 5705 5705 5706 5708 5709 5710 5711 5711 5711 5712 5715 5719 5720 5720 5718 5715 5713 5711 5708 5705 5701 5696 5693 5691 5687 5684 5681 5677 5674
5654 5666 5669 5674 5684 5691 5694 5694 5697 5698 5698 5700 5701 5700 5699 5697 5697 5698 5699 5700 5701 5702 5702 5703 5704 5705 5707 5709 5710 5708 5704 5702 5699 5697 5693 5689 5685 5679 5676 5676 5673 5671 5668 5666
5660 5667 5670 5675 5679 5684 5685 5687 5690 5690 5689 5689 5691 5692 5692 5690 5690 5690 5690 5691 5692 5692 5693 5695 5695 5695 5697 5699 5700 5698 5695 5693 5690 5687 5684 5679 5676 5674 5667 5662 5660 5658 5657 5655
5660 5662 5661 5666 5669 5676 5679 5680 5682 5682 5681 5681 5682 5682 5682 5681 5681 5681 5681 5682 5684 5684 5684 5685 5686 5685 5686 5688 5688 5687 5686 5684 5682 5679 5675 5672 5669 5665 5661 5656 5650 5646 5644 5643
5651 5655 5656 5660 5665 5668 5669 5670 5670 5670 5671 5671 5673 5673 5673 5673 5672 5673 5674 5675 5675 5674 5674 5675 5675 5675 5677 5678 5678 5677 5676 5674 5673 5670 5666 5662 5659 5656 5652 5646 5641 5637 5634 5631
5643 5647 5651 5654 5655 5657 5659 5660 5660 5660 5662 5664 5664 5664 5665 5664 5664 5664 5664 5665 5665 5664 5664 5665 5665 5666 5668 5669 5669 5668 5667 5666 5663 5660 5656 5653 5650 5646 5642 5637 5632 5628 5624 5621
5634 5636 5641 5644 5646 5648 5650 5651 5653 5653 5654 5654 5654 5655 5655 5655 5654 5653 5653 5655 5656 5655 5656 5656 5657 5659 5660 5661 5661 5659 5658 5656 5654 5651 5648 5644 5641 5637 5633 5629 5624 5620 5616 5613
5633 5636 5638 5640 5640 5640 5641 5643 5645 5646 5645 5646 5646 5646 5645 5645 5644 5643 5644 5646 5646 5646 5647 5649 5650 5651 5652 5652 5651 5650 5649 5647 5644 5641 5638 5635 5632 5629 5625 5621 5616 5611 5607 5603
5628 5630 5632 5634 5634 5634 5634 5634 5636 5637 5638 5638 5638 5636 5636 5636 5636 5636 5636 5637 5637 5636 5637 5640 5641 5643 5643 5643 5643 5642 5640 5638 5635 5633 5630 5626 5623 5620 5616 5612 5607 5603 5599 5595
5620 5623 5624 5625 5627 5628 5628 5629 5629 5629 5628 5629 5629 5628 5627 5627 5627 5628 5629 5628 5628 5629 5631 5632 5633 5634 5635 5635 5634 5633 5631 5629 5627 5623 5620 5617 5614 5610 5607 5603 5598 5594 5590 5585
5612 5614 5616 5617 5618 5620 5621 5622 5621 5620 5620 5620 5620 5619 5618 5618 5619 5620 5620 5619 5620 5623 5624 5625 5625 5625 5626 5626 5626 5624 5622 5620 5617 5614 5611 5608 5604 5601 5597 5593 5589 5585 5580 5575
5604 5606 5608 5610 5611 5610 5611 5613 5614 5614 5613 5612 5612 5612 5612 5611 5611 5611 5612 5612 5613 5615 5616 5616 5616 5617 5617 5617 5616 5614 5612 5610 5608 5605 5602 5598 5595 5591 5587 5583 5579 5574 5570 5565
5597 5599 5600 5602 5603 5603 5604 5604 5606 5606 5606 5605 5605 5605 5605 5604 5604 5605 5603 5604 5606 5607 5607 5607 5607 5608 5608 5608 5607 5605 5603 5601 5598 5596 5592 5589 5586 5582 5578 5573 5568 5564 5559 5554
5589 5591 5593 5595 5596 5596 5595 5596 5598 5599 5599 5599 5599 5599 5599 5598 5597 5597 5598 5599 5599 5599 5599 5598 5599 5600 5599 5598 5597 5595 5593 5591 5589 5586 5583 5580 5576 5572 5567 5563 5558 5553 5549 5544
5583 5585 5587 5589 5589 5589 5589 5590 5591 5591 5591 5591 5591 5592 5592 5593 5592 5591 5592 5592 5592 5592 5591 5591 5591 5591 5590 5589 5587 5586 5584 5582 5579 5576 5573 5569 5565 5561 5557 5553 5548 5543 5539 5534
5577 5579 5581 5583 5584 5584 5584 5584 5584 5584 5584 5584 5584 5585 5585 5586 5586 5586 5586 5586 5586 5585 5584 5583 5583 5582 5581 5580 5578 5576 5575 5572 5570 5566 5563 5559 5555 5551 5547 5543 5539 5534 5529 5525
5571 5572 5574 5575 5576 5578 5578 5578 5578 5578 5578 5578 5578 5578 5579 5579 5579 5579 5579 5578 5578 5577 5576 5575 5574 5573 5572 5570 5568 5567 5564 5562 5559 5556 5553 5549 5545 5541 5538 5534 5529 5525 5520 5516